OKEAN-4
1 23317U 94066A   05214.79762042  .00000396  00000-0  46538-4 0 06962
2 23317 082.5376 213.9191 0022195 348.2290 011.8399 14.82196213582814
NOAA-14
1 23455U 94089A   05215.42946978 -.00000098  00000-0 -27266-4 0  7041
2 23455 099.0870 264.5240 0008815 224.3801 135.6658 14.13583502546178
SICH-1
1 23657U 95046A   05216.06371751  .00000322  00000-0  38227-4 0  4999
2 23657 082.5309 353.5956 0023521 329.3876 030.5964 14.81205887535047
NOAA-15
1 25338U 98030A   05214.91938865  .00000050  00000-0  39723-4 0 01346
2 25338 098.5124 221.8313 0009811 219.2044 140.8421 14.24529530375407
RESURS
1 25394U 98043A   05214.93536658  .00000008  00000-0  22086-4 0 01738
2 25394 098.5377 282.8128 0002085 048.8858 311.2501 14.24074343367103
FENGYUN1
1 25730U 99025A   05216.04477197  .00000064  00000-0  58119-4 0  4796
2 25730 098.6066 215.9184 0014043 328.0713 031.9569 14.11798334321268
OKEAN-0
1 25860U 99039A   05216.11618442  .00000142  00000-0  29218-4 0  5014
2 25860 097.7549 239.8971 0002093 080.8570 279.2906 14.73274628325060
NOAA-16
1 26536U 00055A   05214.62424955 -.00000072  00000-0 -14682-4 0 04587
2 26536 099.0159 173.3453 0009722 300.0379 059.9807 14.12260072250612
NOAA-17
1 27453U 02032A   05214.67381753  .00000132  00000-0  77045-4 0 04785
2 27453 098.6592 287.4794 0010924 281.0502 078.9469 14.23688554161453
NOAA-18
1 28654U 05018A   05214.72630358 -.00000086  00000-0 -24256-4 0 00883
2 28654 098.7462 160.5155 0015241 045.9602 314.2820 14.10866804010475
HUBBLE
1 20580U 90037B   05214.70706457  .00000770  00000-0  47736-4 0 04161
2 20580 028.4688 325.6553 0003531 049.4658 310.6242 14.99789934637232
UARS
1 21701U 91063B   05214.86037053  .00000230  00000-0  35204-4 0 04992
2 21701 056.9811 000.8465 0006669 086.0394 274.1368 15.03870725760511
PO-34
1 25520U 98064B   05214.84143106  .00000885  00000-0  34583-4 0 02485
2 25520 028.4554 000.3622 0005489 018.8294 341.2504 15.16368021373673
ISS
1 25544U 98067A   05216.29511330 -.00028664  00000-0 -21516-3 0   715
2 25544 051.6483 014.5662 0002212 213.6399 215.0698 15.71509758383253
WO-39
1 26061U 00004A   03303.41062303  .00002252  00000-0  75720-3 0  9734
2 26061 100.1904 047.3011 0034615 281.6926 078.0378 14.38082544197011
OO-38
1 26063U 00004C   05215.51558038 -.00000061  00000-0 -40330-6 0  4067
2 26063 100.2100 084.2056 0036556 282.1346 077.5734 14.35727471289080
NO-45
1 26932U 01043D   05214.67510023 -.00000340  00000-0 -10056-3 0 00913
2 26932 067.0585 107.7264 0005327 245.4614 114.5949 14.29492301200443
